Home > Weather > Erlangen > Past weeks

Flag for Germany Weather for the Past 2 Weeks in Erlangen, Bavaria, Germany

Now
37 °F

Sprinkles. Broken clouds.


Feels Like: 31 °F
Forecast: 31 / 42 °F
Wind: 8 mph from Northwest

Location: Nuernberg

Current Time: Feb 11, 2016 at 6:14:20 PM

Latest Report: Feb 11, 2016 at 5:20 PM


Visibility: N/A

Pressure: 29.71 "Hg

Humidity: 87%

Dew point: 34 °F

Location of ErlangenLocation

Historic Weather in Erlangen — Graph

°F

Erlangen Temperature Yesterday

Maximum temperature yesterday: 41 °F (at 12:20 AM)
Minimum temperature yesterday: 34 °F (at 5:50 AM)
Average temperature yesterday: 37 °F

High & Low Weather Summary for the Past Weeks

 TemperatureHumidityPressure
High54 °F (Jan 27, 4:20 PM)100% (Jan 29, 1:20 AM)30.42 "Hg (Jan 29, 1:20 AM)
Low30 °F (Feb 7, 5:20 AM)50% (Feb 7, 1:20 PM)29.15 "Hg (Feb 9, 6:50 PM)
Average42 °F81%29.96 "Hg
* Reported Jan 27 4:20 PM — Feb 11 4:50 PM, Erlangen, Weather by CustomWeather, © 2016

Note: Actual official high and low records may vary slightly from our data, if they occured in-between our weather recording intervals... More about our weather records

Advertising

Erlangen Weather History for the Previous 24 Hours

 ConditionsComfort  
Time TempWeatherWind HumidityBarometerVisibility
4:50 PM
Thu, Feb 11
39 °FBroken clouds.7 mph87%29.71 "HgN/A
4:20 PM39 °FScattered showers. Broken clouds.13 mph81%29.71 "HgN/A
3:50 PM39 °FBroken clouds.14 mph81%29.71 "HgN/A
3:20 PM39 °FBroken clouds.12 mph81%29.71 "HgN/A
2:50 PM41 °FPartly sunny.12 mph76%29.71 "HgN/A
2:20 PM39 °FBroken clouds.13 mph81%29.71 "HgN/A
1:50 PM39 °FPartly sunny.13 mph81%29.71 "HgN/A
1:20 PM39 °FPartly sunny.14 mph81%29.71 "HgN/A
12:50 PM37 °FPartly sunny.14 mph87%29.71 "HgN/A
12:20 PM39 °FPartly sunny.14 mph81%29.71 "HgN/A
11:50 AM39 °FPartly sunny.14 mph81%29.71 "HgN/A
11:20 AM39 °FPartly sunny.14 mph81%29.71 "HgN/A
10:50 AM37 °FPartly sunny.14 mph87%29.71 "HgN/A
10:20 AM37 °FPartly sunny.13 mph87%29.71 "HgN/A
9:50 AM37 °FPartly sunny.10 mph87%29.71 "HgN/A
9:20 AM37 °FPartly sunny.9 mph87%29.71 "HgN/A
8:50 AM37 °FPartly sunny.10 mph87%29.71 "HgN/A
8:20 AM37 °FPartly sunny.10 mph87%29.68 "HgN/A
7:50 AM37 °FPartly sunny.10 mph87%29.68 "HgN/A
7:20 AM36 °FPassing clouds.10 mph93%29.68 "HgN/A
6:50 AM36 °FPassing clouds.12 mph93%29.68 "HgN/A
6:20 AM36 °FPassing clouds.10 mph93%29.65 "HgN/A
5:50 AM36 °FPassing clouds.9 mph93%29.65 "HgN/A
5:20 AM36 °FPassing clouds.10 mph93%29.65 "HgN/A
4:50 AM36 °FPassing clouds.14 mph93%29.65 "HgN/A
4:20 AM36 °FPassing clouds.13 mph93%29.65 "HgN/A
3:20 AM36 °FLight rain. Passing clouds.13 mph93%29.62 "HgN/A
2:20 AM37 °FLight rain. Partly cloudy.15 mph87%29.59 "HgN/A
1:50 AM37 °FLight rain. Partly cloudy.16 mph81%29.59 "HgN/A
1:20 AM37 °FLight rain. Passing clouds.15 mph81%29.59 "HgN/A
12:50 AM36 °FLight rain. Passing clouds.16 mph93%29.59 "HgN/A
12:20 AM36 °FPassing clouds.14 mph93%29.56 "HgN/A
11:50 PM
Wed, Feb 10
36 °FPartly cloudy.14 mph93%29.56 "HgN/A
10:50 PM36 °FLight rain. Partly cloudy.16 mph93%29.56 "HgN/A
10:20 PM37 °FChilly.16 mph87%29.53 "HgN/A
9:50 PM37 °FLight rain. Passing clouds.15 mph87%29.53 "HgN/A
9:20 PM37 °FLight rain. Passing clouds.14 mph87%29.53 "HgN/A
8:50 PM37 °FLight rain. Passing clouds.15 mph87%29.53 "HgN/A
8:20 PM37 °FLight rain. Passing clouds.16 mph87%29.50 "HgN/A
7:50 PM37 °FLight rain. Passing clouds.17 mph87%29.50 "HgN/A
7:20 PM37 °FLight rain. Passing clouds.18 mph87%29.50 "HgN/A
6:50 PM36 °FLight rain. Passing clouds.16 mph93%29.47 "HgN/A
6:20 PM36 °FLight rain. Partly cloudy.13 mph93%29.47 "HgN/A
Weather by CustomWeather, © 2016

See weather overviewHow to use our weather pages